Weather History for Fremont, MI

Change the Weather History Date:

Wednesday, January 22, 2014

  Actual Average (KMKG) Record (KMKG)
Temperature  
Mean Temperature 6 °F 25 °F  
Max Temperature 12 °F 30 °F 52 °F (1964)
Min Temperature 1 °F 20 °F -2 °F (1920)
Degree Days  
Heating Degree Days 58 40  
Month to date heating degree days 867  
Since 1 July heating degree days 3313  
Cooling Degree Days 0 0  
Month to date cooling degree days 0  
Year to date cooling degree days 0  
Moisture  
Dew Point 6 °F    
Average Humidity 85    
Maximum Humidity 94    
Minimum Humidity 77    
Precipitation  
Precipitation 0.00 in 0.06 in 1.36 in (1909)
Month to date precipitation 1.49  
Year to date precipitation 1.49  
Snow  
Snow 0.00 in 0.90 in 10.70 in (2011)
Month to date snowfall 19.8  
Since 1 July snowfall 54.9  
Snow Depth -    
Sea Level Pressure  
Sea Level Pressure 29.94 in    
Wind  
Wind Speed 4 mph (SSW)    
Max Wind Speed 12 mph    
Max Gust Speed 20 mph    
Visibility 4 miles    
Events Snow    
T = Trace of Precipitation, MM = Missing Value Source: NWS Daily Summary

Daily Weather History Graph

Daily Weather History Graph

Search for Another Location

Airport:

Trip Planner

Search our weather history database for the weather conditions in past years. The results will help you decide how hot, cold, wet, or windy it might be!

Date:

Astronomy

Jan. 22, 2014 Rise Set
Actual Time 8:09 AM EST 5:42 PM EST
Civil Twilight 7:38 AM EST 6:13 PM EST
Nautical Twilight 7:03 AM EST 6:48 PM EST
Astronomical Twilight 6:29 AM EST 7:22 PM EST
Moon No Moon Rise 10:58 AM EST (1/22)
Length of Visible Light 10h 35m
Length of Day
9h 33m
Waning Gibbous, 65% of the Moon is Illuminated
Jan 22
Waning Gibbous
Jan 24
Last Quarter
Jan 30
New
Feb 6
First Quarter
Feb 14
Full

Hourly Weather History & Observations

Time (EST) Temp. Windchill Dew Point Humidity Pressure Visibility Wind Dir Wind Speed Gust Speed Precip Events Conditions
12:11 AM 8.4 °F - 3.7 °F 81% 30.12 in 10.0 mi Calm Calm - N/A   Overcast
12:31 AM 8.2 °F - 4.1 °F 83% 30.13 in 10.0 mi Calm Calm - N/A   Overcast
12:51 AM 8.2 °F - 4.1 °F 83% 30.12 in 10.0 mi Calm Calm - N/A   Overcast
1:11 AM 8.2 °F - 4.1 °F 83% 30.12 in 10.0 mi Calm Calm - N/A   Overcast
1:31 AM 8.2 °F - 4.1 °F 83% 30.11 in 10.0 mi Calm Calm - N/A   Overcast
1:51 AM 8.2 °F 1.6 °F 4.1 °F 83% 30.10 in 10.0 mi SSE 3.5 mph - N/A   Overcast
2:11 AM 8.2 °F 1.6 °F 4.1 °F 83% 30.10 in 10.0 mi SSE 3.5 mph - N/A   Overcast
2:31 AM 8.4 °F -0.1 °F 3.9 °F 82% 30.09 in 10.0 mi SSE 4.6 mph - N/A   Overcast
2:51 AM 8.2 °F 1.6 °F 3.9 °F 83% 30.09 in 10.0 mi SSE 3.5 mph - N/A   Overcast
3:11 AM 8.4 °F -0.1 °F 3.9 °F 82% 30.09 in 10.0 mi SSE 4.6 mph - N/A   Overcast
3:31 AM 8.4 °F - 3.7 °F 81% 30.07 in 10.0 mi Calm Calm - N/A   Overcast
3:52 AM 8.4 °F -0.1 °F 3.6 °F 81% 30.07 in 10.0 mi South 4.6 mph - N/A   Overcast
4:12 AM 8.4 °F -0.1 °F 3.7 °F 81% 30.05 in 10.0 mi SSE 4.6 mph - N/A   Overcast
4:32 AM 8.4 °F - 3.7 °F 81% 30.04 in 10.0 mi Calm Calm - N/A   Overcast
4:52 AM 8.6 °F 0.1 °F 3.7 °F 81% 30.03 in 10.0 mi SSE 4.6 mph - N/A   Overcast
5:12 AM 8.6 °F 0.1 °F 3.6 °F 80% 30.02 in 10.0 mi SSE 4.6 mph - N/A   Overcast
5:32 AM 8.6 °F -1.3 °F 3.2 °F 79% 30.01 in 10.0 mi SSE 5.8 mph - N/A   Overcast
5:52 AM 9.0 °F -0.9 °F 3.2 °F 77% 30.00 in 10.0 mi SSE 5.8 mph - N/A Snow Light Snow
6:12 AM 9.0 °F 0.6 °F 3.7 °F 79% 29.99 in 2.5 mi SE 4.6 mph - N/A Snow Light Snow
6:33 AM 8.6 °F -1.3 °F 4.5 °F 83% 29.99 in 3.0 mi SSE 5.8 mph - N/A Snow Light Snow
6:53 AM 8.6 °F 0.1 °F 4.8 °F 85% 29.98 in 5.0 mi South 4.6 mph - N/A Snow Light Snow
7:13 AM 8.6 °F 0.1 °F 4.8 °F 85% 29.98 in 7.0 mi SSE 4.6 mph - N/A Snow Light Snow
7:33 AM 8.6 °F -2.6 °F 4.6 °F 84% 29.97 in 7.0 mi SSE 6.9 mph - N/A Snow Light Snow
7:53 AM 8.6 °F 0.1 °F 5.0 °F 85% 29.96 in 2.5 mi SSE 4.6 mph - N/A Snow Light Snow
8:13 AM 8.6 °F -1.3 °F 5.2 °F 86% 29.95 in 1.5 mi SSE 5.8 mph - N/A Snow Light Snow
8:33 AM 8.6 °F 0.1 °F 5.5 °F 87% 29.95 in 1.0 mi SSE 4.6 mph - N/A Snow Light Snow
8:53 AM 9.0 °F 0.6 °F 5.7 °F 87% 29.95 in 2.5 mi SSE 4.6 mph - N/A Snow Light Snow
9:13 AM 9.3 °F -0.5 °F 5.9 °F 86% 29.94 in 1.5 mi SSE 5.8 mph - N/A Snow Light Snow
9:33 AM 9.5 °F -0.3 °F 6.3 °F 87% 29.93 in 1.5 mi SSE 5.8 mph - N/A Snow Light Snow
9:49 AM 10.2 °F -2.7 °F 6.8 °F 86% 29.93 in 1.2 mi SSE 9.2 mph - N/A Snow Light Snow
10:11 AM 10.9 °F -0.8 °F 7.3 °F 85% 29.92 in 1.2 mi South 8.1 mph - N/A Snow Light Snow
10:31 AM 11.3 °F 0.7 °F 7.7 °F 85% 29.92 in 0.5 mi South 6.9 mph - N/A Snow Light Snow
10:51 AM 11.8 °F 0.3 °F 8.4 °F 86% 29.91 in 0.8 mi South 8.1 mph - N/A Snow Light Snow
11:11 AM 12.2 °F 0.7 °F 8.6 °F 85% 29.90 in 0.8 mi South 8.1 mph 18.4 mph N/A Snow Light Snow
11:31 AM 12.7 °F -0.4 °F 8.6 °F 84% 29.90 in 1.0 mi South 10.4 mph 18.4 mph N/A Snow Light Snow
11:52 AM 12.2 °F -0.2 °F 8.6 °F 85% 29.88 in 0.5 mi South 9.2 mph - N/A Snow Light Snow
12:12 PM 11.8 °F -2.3 °F 8.1 °F 85% 29.87 in 0.5 mi South 11.5 mph 18.4 mph N/A Snow Snow
12:32 PM 11.5 °F -1.9 °F 7.7 °F 85% 29.85 in 0.5 mi South 10.4 mph 19.6 mph N/A Snow Light Snow
12:52 PM 11.7 °F -1.7 °F 7.7 °F 84% 29.84 in 0.5 mi South 10.4 mph 18.4 mph N/A Snow Light Snow
1:12 PM 11.5 °F -1.9 °F 7.9 °F 85% 29.83 in 0.5 mi South 10.4 mph 16.1 mph N/A Snow Snow
1:32 PM 11.7 °F -2.5 °F 7.7 °F 84% 29.82 in 0.5 mi South 11.5 mph 17.3 mph N/A Snow Light Snow
1:52 PM 11.8 °F -2.3 °F 7.7 °F 83% 29.81 in 1.0 mi South 11.5 mph - N/A Snow Light Snow
2:12 PM 11.7 °F -0.9 °F 7.5 °F 83% 29.81 in 1.0 mi South 9.2 mph 16.1 mph N/A Snow Light Snow
2:32 PM 11.3 °F 0.7 °F 7.7 °F 85% 29.80 in 0.5 mi South 6.9 mph 17.3 mph N/A Snow Snow
2:52 PM 11.3 °F -2.2 °F 7.7 °F 85% 29.80 in 0.5 mi South 10.4 mph - N/A Snow Snow
3:13 PM 11.3 °F -1.3 °F 7.7 °F 85% 29.80 in 0.5 mi South 9.2 mph - N/A Snow Light Snow
3:33 PM 11.3 °F 0.7 °F 8.1 °F 87% 29.81 in 0.5 mi South 6.9 mph - N/A Snow Light Snow
3:53 PM 11.3 °F 1.9 °F 8.1 °F 87% 29.81 in 0.5 mi South 5.8 mph - N/A Snow Light Snow
4:13 PM 11.3 °F 1.9 °F 7.7 °F 85% 29.82 in 0.8 mi South 5.8 mph - N/A Snow Light Snow
4:33 PM 10.9 °F -0.8 °F 7.7 °F 87% 29.82 in 0.5 mi South 8.1 mph - N/A Snow Snow
4:53 PM 10.9 °F 2.9 °F 8.1 °F 88% 29.83 in 0.2 mi SSW 4.6 mph - N/A Snow Snow
5:13 PM 10.8 °F 2.7 °F 7.7 °F 87% 29.83 in 0.5 mi SSW 4.6 mph - N/A Snow Snow
5:33 PM 10.9 °F 1.4 °F 7.7 °F 87% 29.84 in 1.0 mi SW 5.8 mph - N/A Snow Light Snow
5:53 PM 11.3 °F - 8.6 °F 89% 29.84 in 1.0 mi Calm Calm - N/A Snow Light Snow
6:13 PM 11.3 °F 5.1 °F 8.6 °F 89% 29.85 in 2.0 mi WNW 3.5 mph - N/A Snow Light Snow
6:34 PM 11.3 °F 1.9 °F 8.6 °F 89% 29.87 in 1.0 mi WNW 5.8 mph - N/A Snow Light Snow
6:54 PM 11.3 °F 3.3 °F 8.4 °F 88% 29.87 in 1.2 mi WNW 4.6 mph - N/A Snow Light Snow
7:14 PM 11.1 °F -0.6 °F 7.7 °F 86% 29.88 in 2.0 mi WNW 8.1 mph - N/A Snow Light Snow
7:34 PM 10.6 °F -0.2 °F 7.2 °F 86% 29.88 in 3.0 mi WNW 6.9 mph - N/A Snow Light Snow
7:54 PM 10.4 °F -0.4 °F 7.2 °F 87% 29.89 in 1.8 mi WNW 6.9 mph - N/A Snow Light Snow
8:14 PM 10.2 °F -1.7 °F 6.8 °F 86% 29.89 in 2.5 mi WNW 8.1 mph - N/A Snow Light Snow
8:34 PM 9.9 °F -2.2 °F 6.3 °F 85% 29.89 in 3.0 mi WNW 8.1 mph - N/A Snow Light Snow
8:55 PM 9.5 °F -1.5 °F 6.3 °F 87% 29.90 in 3.0 mi WNW 6.9 mph - N/A Snow Light Snow
9:15 PM 9.3 °F -1.7 °F 5.9 °F 86% 29.90 in 2.0 mi WNW 6.9 mph - N/A Snow Light Snow
9:35 PM 7.0 °F -4.5 °F 3.6 °F 86% 29.91 in 2.5 mi WNW 6.9 mph - N/A Snow Light Snow
9:55 PM 5.4 °F -6.5 °F 2.3 °F 87% 29.91 in 1.5 mi NW 6.9 mph - N/A Snow Light Snow
10:15 PM 3.9 °F -9.4 °F 1.4 °F 89% 29.92 in 10.0 mi NW 8.1 mph - N/A Snow Light Snow
10:35 PM 2.3 °F -10.2 °F -0.9 °F 86% 29.92 in 10.0 mi WNW 6.9 mph - N/A Snow Light Snow
10:55 PM 4.5 °F -7.6 °F 1.6 °F 88% 29.93 in 10.0 mi NW 6.9 mph - N/A   Mostly Cloudy
11:15 PM 3.0 °F -6.4 °F 0.3 °F 88% 29.93 in 10.0 mi NW 4.6 mph - N/A   Scattered Clouds
11:35 PM 1.6 °F -9.7 °F -0.8 °F 90% 29.94 in 10.0 mi NW 5.8 mph - N/A   Clear
11:50 PM 3.6 °F -5.7 °F 2.1 °F 94% 29.94 in 10.0 mi West 4.6 mph - N/A   Clear